| time (UTC) | temp F | wind direction | speed knots | gust knots | rain 1hr in | rain 24hr in | rain mn in | humidity % | barometer mb |
| 20260507023104 | 69 | 242 | 1.7 | 4.3 | 0.00 | 0.00 | 0.00 | 55 | 1016.7 |
| 20260507022604 | 69 | 305 | 1.7 | 4.3 | 0.00 | 0.00 | 0.00 | 54 | 1016.7 |
| 20260507022106 | 70 | 320 | 2.6 | 6.1 | 0.00 | 0.00 | 0.00 | 53 | 1016.7 |
| 20260507021604 | 70 | 254 | 1.7 | 7.0 | 0.00 | 0.00 | 0.00 | 53 | 1016.6 |
| 20260507020604 | 71 | 262 | 4.3 | 7.0 | 0.00 | 0.00 | 0.00 | 50 | 1016.5 |
| 20260507015604 | 72 | 244 | 4.3 | 8.7 | 0.00 | 0.00 | 0.00 | 48 | 1016.3 |
| 20260507014604 | 73 | 267 | 4.3 | 8.7 | 0.00 | 0.00 | 0.00 | 48 | 1016.3 |
| 20260507014104 | 73 | 258 | 4.3 | 7.8 | 0.00 | 0.00 | 0.00 | 48 | 1016.3 |
| 20260507013604 | 74 | 260 | 4.3 | 7.8 | 0.00 | 0.00 | 0.00 | 47 | 1016.3 |
| 20260507012104 | 75 | 265 | 5.2 | 8.7 | 0.00 | 0.00 | 0.00 | 43 | 1016.2 |
| 20260507011604 | 75 | 276 | 5.2 | 10.4 | 0.00 | 0.00 | 0.00 | 43 | 1016.2 |
| 20260507011105 | 76 | 274 | 6.1 | 10.4 | 0.00 | 0.00 | 0.00 | 42 | 1016.1 |
| 20260507010603 | 76 | 275 | 5.2 | 8.7 | 0.00 | 0.00 | 0.00 | 39 | 1016.0 |
| 20260507010104 | 76 | 263 | 4.3 | 8.7 | 0.00 | 0.00 | 0.00 | 40 | 1015.9 |
| 20260507005604 | 76 | 261 | 5.2 | 8.7 | 0.00 | 0.00 | 0.00 | 39 | 1015.9 |
| 20260507005104 | 77 | 275 | 4.3 | 10.4 | 0.00 | 0.00 | 0.00 | 37 | 1015.9 |
| 20260507004604 | 77 | 281 | 4.3 | 10.4 | 0.00 | 0.00 | 0.00 | 38 | 1015.8 |
| 20260507004105 | 77 | 282 | 5.2 | 10.4 | 0.00 | 0.00 | 0.00 | 35 | 1015.8 |
| 20260507003604 | 77 | 261 | 4.3 | 10.4 | 0.00 | 0.00 | 0.00 | 35 | 1015.8 |
| 20260507002604 | 77 | 322 | 6.1 | 10.4 | 0.00 | 0.00 | 0.00 | 32 | 1015.8 |
| 20260507001604 | 78 | 303 | 4.3 | 11.3 | 0.00 | 0.00 | 0.00 | 32 | 1015.8 |
| 20260507000603 | 78 | 294 | 4.3 | 10.4 | 0.00 | 0.00 | 0.00 | 32 | 1015.7 |
| 20260507000105 | 78 | 300 | 6.1 | 10.4 | 0.00 | 0.00 | 0.00 | 31 | 1015.8 |
| 20260506235604 | 78 | 320 | 4.3 | 10.4 | 0.00 | 0.00 | 0.00 | 32 | 1015.8 |
| 20260506234604 | 78 | 323 | 5.2 | 8.7 | 0.00 | 0.00 | 0.00 | 31 | 1015.6 |
| 20260506234104 | 78 | 309 | 5.2 | 11.3 | 0.00 | 0.00 | 0.00 | 32 | 1015.5 |
| 20260506233604 | 79 | 318 | 6.1 | 11.3 | 0.00 | 0.00 | 0.00 | 31 | 1015.7 |
| 20260506233104 | 80 | 276 | 4.3 | 8.7 | 0.00 | 0.00 | 0.00 | 30 | 1015.7 |
| 20260506232104 | 79 | 298 | 2.6 | 7.0 | 0.00 | 0.00 | 0.00 | 31 | 1015.7 |
| 20260506231604 | 78 | 265 | 1.7 | 7.0 | 0.00 | 0.00 | 0.00 | 31 | 1015.7 |
| 20260506230604 | 78 | 265 | 3.5 | 8.7 | 0.00 | 0.00 | 0.00 | 31 | 1015.9 |
| 20260506230105 | 78 | 0 | 2.6 | 7.8 | 0.00 | 0.00 | 0.00 | 30 | 1016.0 |
| 20260506225604 | 79 | 255 | 5.2 | 7.8 | 0.00 | 0.00 | 0.00 | 30 | 1016.0 |
| 20260506224608 | 77 | 269 | 0.9 | 6.1 | 0.00 | 0.00 | 0.00 | 31 | 1016.1 |
| 20260506224104 | 77 | 243 | 2.6 | 8.7 | 0.00 | 0.00 | 0.00 | 32 | 1016.1 |
| 20260506223604 | 77 | 296 | 2.6 | 8.7 | 0.00 | 0.00 | 0.00 | 31 | 1016.1 |
| 20260506223104 | 77 | 280 | 4.3 | 8.7 | 0.00 | 0.00 | 0.00 | 31 | 1016.2 |
| 20260506222603 | 77 | 284 | 4.3 | 7.8 | 0.00 | 0.00 | 0.00 | 30 | 1016.2 |
| 20260506222105 | 77 | 288 | 1.7 | 5.2 | 0.00 | 0.00 | 0.00 | 31 | 1016.2 |
| 20260506221604 | 76 | 313 | 1.7 | 8.7 | 0.00 | 0.00 | 0.00 | 32 | 1016.3 |
| 20260506221107 | 76 | 252 | 4.3 | 8.7 | 0.00 | 0.00 | 0.00 | 31 | 1016.6 |
| 20260506220604 | 76 | 272 | 4.3 | 7.8 | 0.00 | 0.00 | 0.00 | 32 | 1016.7 |
| 20260506220104 | 76 | 269 | 4.3 | 8.7 | 0.00 | 0.00 | 0.00 | 32 | 1016.7 |
| 20260506214104 | 76 | 276 | 3.5 | 7.0 | 0.00 | 0.00 | 0.00 | 32 | 1016.9 |
| 20260506213604 | 75 | 298 | 4.3 | 7.0 | 0.00 | 0.00 | 0.00 | 32 | 1017.0 |
| 20260506213104 | 75 | 294 | 2.6 | 7.0 | 0.00 | 0.00 | 0.00 | 32 | 1017.1 |
| 20260506212104 | 75 | 319 | 1.7 | 5.2 | 0.00 | 0.00 | 0.00 | 34 | 1017.3 |
| 20260506211104 | 74 | 249 | 2.6 | 10.4 | 0.00 | 0.00 | 0.00 | 31 | 1017.4 |
| 20260506210604 | 73 | 251 | 4.3 | 10.4 | 0.00 | 0.00 | 0.00 | 34 | 1017.4 |
| 20260506210105 | 73 | 259 | 1.7 | 7.8 | 0.00 | 0.00 | 0.00 | 35 | 1017.4 |
| 20260506205604 | 72 | 275 | 3.5 | 7.8 | 0.00 | 0.00 | 0.00 | 37 | 1017.4 |
| 20260506204603 | 72 | 332 | 2.6 | 7.0 | 0.00 | 0.00 | 0.00 | 35 | 1017.5 |
| 20260506204104 | 72 | 294 | 3.5 | 7.0 | 0.00 | 0.00 | 0.00 | 34 | 1017.5 |
| 20260506202604 | 71 | 290 | 2.6 | 6.1 | 0.00 | 0.00 | 0.00 | 36 | 1017.8 |
| 20260506202107 | 71 | 293 | 1.7 | 6.1 | 0.00 | 0.00 | 0.00 | 38 | 1017.9 |
| 20260506201604 | 70 | 284 | 2.6 | 7.8 | 0.00 | 0.00 | 0.00 | 35 | 1017.9 |
| 20260506201106 | 70 | 299 | 1.7 | 7.8 | 0.00 | 0.00 | 0.00 | 36 | 1018.0 |
| 20260506200604 | 70 | 305 | 2.6 | 7.8 | 0.00 | 0.00 | 0.00 | 39 | 1018.0 |
| 20260506200104 | 69 | 298 | 2.6 | 7.8 | 0.00 | 0.00 | 0.00 | 39 | 1018.1 |
| 20260506195604 | 69 | 259 | 1.7 | 7.0 | 0.00 | 0.00 | 0.00 | 39 | 1018.2 |
| 20260506194604 | 69 | 279 | 4.3 | 7.0 | 0.00 | 0.00 | 0.00 | 40 | 1018.4 |
| 20260506194103 | 68 | 306 | 2.6 | 7.8 | 0.00 | 0.00 | 0.00 | 41 | 1018.4 |
| 20260506193604 | 68 | 309 | 2.6 | 7.8 | 0.00 | 0.00 | 0.00 | 42 | 1018.5 |
| 20260506193105 | 68 | 257 | 5.2 | 7.8 | 0.00 | 0.00 | 0.00 | 43 | 1018.6 |
| 20260506192604 | 68 | 301 | 4.3 | 6.1 | 0.00 | 0.00 | 0.00 | 43 | 1018.6 |
| 20260506192104 | 67 | 271 | 3.5 | 6.1 | 0.00 | 0.00 | 0.00 | 45 | 1018.6 |
| 20260506191105 | 67 | 317 | 5.2 | 7.8 | 0.00 | 0.00 | 0.00 | 45 | 1018.7 |
| 20260506190604 | 66 | 274 | 3.5 | 7.8 | 0.00 | 0.00 | 0.00 | 46 | 1018.7 |
| 20260506190104 | 66 | 257 | 0.9 | 7.0 | 0.00 | 0.00 | 0.00 | 47 | 1018.7 |
| 20260506185604 | 66 | 249 | 1.7 | 7.0 | 0.00 | 0.00 | 0.00 | 47 | 1018.7 |
| 20260506184604 | 65 | 299 | 3.5 | 8.7 | 0.00 | 0.00 | 0.00 | 48 | 1018.9 |
| 20260506184104 | 65 | 318 | 4.3 | 8.7 | 0.00 | 0.00 | 0.00 | 48 | 1018.8 |
| 20260506183604 | 64 | 317 | 1.7 | 6.1 | 0.00 | 0.00 | 0.00 | 48 | 1019.0 |
| 20260506183104 | 64 | 327 | 3.5 | 7.0 | 0.00 | 0.00 | 0.00 | 48 | 1019.1 |
| 20260506182106 | 64 | 291 | 1.7 | 4.3 | 0.00 | 0.00 | 0.00 | 51 | 1019.2 |
| 20260506181604 | 64 | 287 | 1.7 | 7.0 | 0.00 | 0.00 | 0.00 | 50 | 1019.3 |
| 20260506181107 | 63 | 273 | 2.6 | 7.0 | 0.00 | 0.00 | 0.00 | 50 | 1019.4 |
| 20260506180605 | 63 | 315 | 4.3 | 7.0 | 0.00 | 0.00 | 0.00 | 51 | 1019.4 |
| 20260506180104 | 63 | 328 | 0.9 | 6.1 | 0.00 | 0.00 | 0.00 | 50 | 1019.4 |
| 20260506175604 | 62 | 328 | 2.6 | 6.1 | 0.00 | 0.00 | 0.00 | 53 | 1019.4 |
| 20260506175104 | 62 | 300 | 2.6 | 6.1 | 0.00 | 0.00 | 0.00 | 54 | 1019.4 |
| 20260506174604 | 62 | 331 | 2.6 | 6.1 | 0.00 | 0.00 | 0.00 | 53 | 1019.4 |
| 20260506174104 | 62 | 322 | 3.5 | 7.0 | 0.00 | 0.00 | 0.00 | 53 | 1019.4 |
| 20260506173104 | 61 | 267 | 3.5 | 6.1 | 0.00 | 0.00 | 0.00 | 56 | 1019.4 |
| 20260506172604 | 61 | 321 | 1.7 | 6.1 | 0.00 | 0.00 | 0.00 | 55 | 1019.4 |
| 20260506171104 | 60 | 316 | 2.6 | 6.1 | 0.00 | 0.00 | 0.00 | 57 | 1019.4 |
| 20260506170603 | 60 | 280 | 4.3 | 6.1 | 0.00 | 0.00 | 0.00 | 58 | 1019.4 |
| 20260506170104 | 59 | 289 | 3.5 | 5.2 | 0.00 | 0.00 | 0.00 | 58 | 1019.3 |
| 20260506165604 | 59 | 246 | 2.6 | 6.1 | 0.00 | 0.00 | 0.00 | 57 | 1019.3 |
| 20260506165104 | 59 | 285 | 2.6 | 6.1 | 0.00 | 0.00 | 0.00 | 58 | 1019.4 |
| 20260506164604 | 59 | 278 | 3.5 | 5.2 | 0.00 | 0.00 | 0.00 | 57 | 1019.4 |
| 20260506163603 | 58 | 307 | 1.7 | 4.3 | 0.00 | 0.00 | 0.00 | 61 | 1019.3 |
| 20260506163104 | 58 | 314 | 1.7 | 4.3 | 0.00 | 0.00 | 0.00 | 60 | 1019.4 |
| 20260506162604 | 57 | 321 | 2.6 | 4.3 | 0.00 | 0.00 | 0.00 | 61 | 1019.3 |
| 20260506160604 | 56 | 282 | 0.9 | 2.6 | 0.00 | 0.01 | 0.00 | 65 | 1019.4 |
| 20260506160104 | 56 | 282 | 1.7 | 4.3 | 0.00 | 0.01 | 0.00 | 65 | 1019.4 |
| 20260506155605 | 56 | 281 | 2.6 | 4.3 | 0.00 | 0.01 | 0.00 | 66 | 1019.4 |
| 20260506155104 | 56 | 329 | 1.7 | 2.6 | 0.00 | 0.01 | 0.00 | 66 | 1019.3 |
| 20260506154604 | 56 | 329 | 1.7 | 2.6 | 0.00 | 0.01 | 0.00 | 67 | 1019.3 |
| 20260506153603 | 56 | 346 | 0.9 | 2.6 | 0.00 | 0.01 | 0.00 | 69 | 1019.3 |
| 20260506153104 | 55 | 346 | 0.0 | 2.6 | 0.00 | 0.01 | 0.00 | 70 | 1019.2 |
| 20260506152603 | 54 | 346 | 0.0 | 2.6 | 0.00 | 0.01 | 0.00 | 69 | 1019.3 |
| 20260506152104 | 54 | 346 | 0.0 | 2.6 | 0.00 | 0.01 | 0.00 | 70 | 1019.3 |
| 20260506151604 | 54 | 346 | 1.7 | 2.6 | 0.00 | 0.01 | 0.00 | 70 | 1019.3 |
| 20260506151106 | 54 | 117 | 0.0 | 2.6 | 0.00 | 0.01 | 0.00 | 72 | 1019.3 |
| 20260506150604 | 54 | 117 | 0.0 | 0.9 | 0.00 | 0.01 | 0.00 | 72 | 1019.3 |
| 20260506150104 | 53 | 117 | 0.0 | 1.7 | 0.00 | 0.01 | 0.00 | 73 | 1019.2 |
| 20260506145604 | 54 | 117 | 0.0 | 1.7 | 0.00 | 0.01 | 0.00 | 73 | 1019.3 |
| 20260506145104 | 54 | 115 | 0.0 | 0.9 | 0.00 | 0.01 | 0.00 | 75 | 1019.3 |
| 20260506144604 | 54 | 115 | 0.0 | 0.0 | 0.00 | 0.01 | 0.00 | 78 | 1019.3 |
| 20260506144103 | 53 | 115 | 0.0 | 0.0 | 0.00 | 0.01 | 0.00 | 80 | 1019.2 |
| 20260506143604 | 52 | 115 | 0.0 | 0.0 | 0.00 | 0.02 | 0.00 | 81 | 1019.1 |
| 20260506143104 | 51 | 115 | 0.0 | 0.9 | 0.00 | 0.03 | 0.00 | 83 | 1019.1 |
| 20260506142605 | 50 | 115 | 0.0 | 1.7 | 0.00 | 0.03 | 0.00 | 84 | 1019.1 |
| 20260506142104 | 50 | 115 | 0.0 | 1.7 | 0.00 | 0.04 | 0.00 | 85 | 1019.0 |
| 20260506141605 | 49 | 117 | 0.9 | 0.9 | 0.00 | 0.04 | 0.00 | 86 | 1019.0 |
| 20260506141107 | 49 | 120 | 0.0 | 0.9 | 0.00 | 0.06 | 0.00 | 87 | 1019.0 |
| 20260506140603 | 48 | 120 | 0.0 | 0.9 | 0.00 | 0.06 | 0.00 | 87 | 1019.0 |
| 20260506135604 | 47 | 120 | 0.0 | 1.7 | 0.00 | 0.06 | 0.00 | 87 | 1018.9 |
| 20260506135104 | 47 | 120 | 0.0 | 1.7 | 0.00 | 0.07 | 0.00 | 87 | 1018.9 |
| 20260506134604 | 47 | 123 | 0.0 | 1.7 | 0.00 | 0.07 | 0.00 | 87 | 1018.9 |
| 20260506134104 | 46 | 146 | 0.0 | 1.7 | 0.00 | 0.07 | 0.00 | 87 | 1018.9 |
| 20260506133604 | 46 | 146 | 0.0 | 0.9 | 0.00 | 0.07 | 0.00 | 87 | 1018.8 |
| 20260506133104 | 46 | 146 | 0.0 | 0.9 | 0.00 | 0.08 | 0.00 | 87 | 1018.8 |
| 20260506132604 | 46 | 146 | 0.0 | 1.7 | 0.00 | 0.08 | 0.00 | 87 | 1018.8 |
| 20260506132104 | 46 | 146 | 0.0 | 1.7 | 0.00 | 0.09 | 0.00 | 88 | 1018.8 |
| 20260506130605 | 46 | 149 | 0.9 | 1.7 | 0.00 | 0.12 | 0.00 | 88 | 1018.7 |
| 20260506130104 | 46 | 149 | 0.0 | 1.7 | 0.00 | 0.13 | 0.00 | 87 | 1018.7 |
| 20260506125104 | 46 | 149 | 0.0 | 1.7 | 0.00 | 0.13 | 0.00 | 87 | 1018.5 |
| 20260506124604 | 46 | 150 | 0.0 | 1.7 | 0.00 | 0.13 | 0.00 | 87 | 1018.4 |
| 20260506123604 | 46 | 150 | 0.0 | 1.7 | 0.00 | 0.13 | 0.00 | 87 | 1018.4 |
| 20260506123104 | 46 | 150 | 0.9 | 1.7 | 0.00 | 0.13 | 0.00 | 87 | 1018.4 |
| 20260506122604 | 46 | 150 | 0.9 | 1.7 | 0.00 | 0.13 | 0.00 | 87 | 1018.4 |
| 20260506122104 | 46 | 151 | 0.9 | 1.7 | 0.00 | 0.13 | 0.00 | 87 | 1018.4 |
| 20260506121604 | 46 | 151 | 0.9 | 1.7 | 0.00 | 0.13 | 0.00 | 86 | 1018.4 |
| 20260506121106 | 46 | 151 | 0.0 | 0.9 | 0.00 | 0.13 | 0.00 | 87 | 1018.4 |
| 20260506120604 | 46 | 151 | 0.0 | 0.9 | 0.00 | 0.14 | 0.00 | 87 | 1018.4 |
| 20260506120104 | 46 | 151 | 0.0 | 0.9 | 0.00 | 0.14 | 0.00 | 87 | 1018.4 |
| 20260506115604 | 46 | 151 | 0.0 | 0.9 | 0.00 | 0.14 | 0.00 | 87 | 1018.4 |
| 20260506115104 | 46 | 151 | 0.0 | 0.9 | 0.00 | 0.14 | 0.00 | 87 | 1018.4 |
| 20260506114604 | 46 | 151 | 0.0 | 0.9 | 0.00 | 0.14 | 0.00 | 87 | 1018.4 |
| 20260506114104 | 46 | 151 | 0.0 | 0.9 | 0.00 | 0.15 | 0.00 | 87 | 1018.4 |
| 20260506113604 | 46 | 151 | 0.0 | 0.9 | 0.00 | 0.15 | 0.00 | 86 | 1018.4 |
| 20260506113104 | 46 | 151 | 0.0 | 0.9 | 0.00 | 0.15 | 0.00 | 86 | 1018.4 |
| 20260506112605 | 46 | 151 | 0.0 | 1.7 | 0.00 | 0.15 | 0.00 | 86 | 1018.4 |
| 20260506111604 | 46 | 151 | 0.0 | 1.7 | 0.00 | 0.15 | 0.00 | 85 | 1018.4 |
| 20260506110604 | 47 | 152 | 0.9 | 1.7 | 0.00 | 0.15 | 0.00 | 85 | 1018.4 |
| 20260506110104 | 47 | 155 | 0.9 | 1.7 | 0.00 | 0.15 | 0.00 | 85 | 1018.4 |
| 20260506105605 | 47 | 154 | 0.9 | 1.7 | 0.00 | 0.15 | 0.00 | 85 | 1018.4 |
| 20260506105104 | 47 | 155 | 0.0 | 0.9 | 0.00 | 0.15 | 0.00 | 85 | 1018.4 |
| 20260506104604 | 47 | 156 | 0.0 | 0.9 | 0.00 | 0.15 | 0.00 | 84 | 1018.4 |
| 20260506104104 | 48 | 156 | 0.0 | 1.7 | 0.00 | 0.15 | 0.00 | 84 | 1018.4 |
| 20260506103604 | 48 | 156 | 0.9 | 1.7 | 0.00 | 0.15 | 0.00 | 85 | 1018.4 |
| 20260506103104 | 48 | 156 | 0.0 | 1.7 | 0.00 | 0.15 | 0.00 | 84 | 1018.3 |
| 20260506102604 | 48 | 157 | 0.9 | 1.7 | 0.00 | 0.15 | 0.00 | 84 | 1018.3 |
| 20260506101606 | 48 | 169 | 0.9 | 1.7 | 0.00 | 0.15 | 0.00 | 83 | 1018.2 |
| 20260506101106 | 49 | 170 | 0.0 | 1.7 | 0.00 | 0.15 | 0.00 | 83 | 1018.2 |
| 20260506100604 | 49 | 171 | 0.9 | 1.7 | 0.00 | 0.15 | 0.00 | 83 | 1018.2 |
| 20260506100104 | 49 | 176 | 0.9 | 1.7 | 0.00 | 0.15 | 0.00 | 83 | 1018.2 |
| 20260506095604 | 49 | 180 | 0.9 | 1.7 | 0.00 | 0.15 | 0.00 | 83 | 1018.3 |
| 20260506094604 | 49 | 184 | 0.0 | 0.0 | 0.00 | 0.15 | 0.00 | 83 | 1018.3 |
| 20260506094104 | 49 | 184 | 0.0 | 0.9 | 0.00 | 0.15 | 0.00 | 82 | 1018.2 |
| 20260506093604 | 49 | 184 | 0.0 | 0.9 | 0.00 | 0.15 | 0.00 | 82 | 1018.3 |
| 20260506092604 | 50 | 184 | 0.0 | 0.0 | 0.00 | 0.15 | 0.00 | 81 | 1018.2 |
| 20260506091604 | 50 | 184 | 0.0 | 0.0 | 0.00 | 0.15 | 0.00 | 81 | 1018.3 |
| 20260506091104 | 50 | 184 | 0.0 | 0.0 | 0.00 | 0.15 | 0.00 | 81 | 1018.3 |
| 20260506090604 | 50 | 184 | 0.0 | 0.0 | 0.00 | 0.15 | 0.00 | 81 | 1018.3 |
| 20260506090104 | 50 | 184 | 0.0 | 0.0 | 0.00 | 0.15 | 0.00 | 81 | 1018.3 |
| 20260506085104 | 51 | 184 | 0.0 | 0.9 | 0.00 | 0.16 | 0.00 | 80 | 1018.3 |
| 20260506084604 | 51 | 184 | 0.0 | 0.9 | 0.00 | 0.17 | 0.00 | 80 | 1018.4 |
| 20260506084104 | 51 | 184 | 0.0 | 0.9 | 0.00 | 0.17 | 0.00 | 79 | 1018.4 |
| 20260506083604 | 51 | 184 | 0.0 | 0.0 | 0.00 | 0.17 | 0.00 | 79 | 1018.5 |
| 20260506082604 | 51 | 184 | 0.0 | 0.0 | 0.00 | 0.17 | 0.00 | 79 | 1018.7 |
| 20260506082106 | 52 | 184 | 0.0 | 0.0 | 0.00 | 0.17 | 0.00 | 78 | 1018.7 |
| 20260506081606 | 52 | 184 | 0.0 | 0.9 | 0.00 | 0.17 | 0.00 | 78 | 1018.7 |
| 20260506081107 | 52 | 184 | 0.0 | 0.9 | 0.00 | 0.17 | 0.00 | 78 | 1018.7 |
| 20260506080604 | 52 | 184 | 0.0 | 0.9 | 0.00 | 0.17 | 0.00 | 78 | 1018.7 |
| 20260506073104 | 52 | 184 | 0.0 | 0.9 | 0.00 | 0.18 | 0.00 | 78 | 1018.9 |
| 20260506072604 | 52 | 184 | 0.0 | 1.7 | 0.00 | 0.21 | 0.00 | 77 | 1018.9 |
| 20260506072105 | 52 | 184 | 0.0 | 1.7 | 0.00 | 0.23 | 0.00 | 77 | 1018.8 |
| 20260506071604 | 52 | 190 | 0.0 | 1.7 | 0.00 | 0.23 | 0.00 | 76 | 1018.9 |
| 20260506071104 | 52 | 191 | 0.0 | 0.9 | 0.00 | 0.23 | 0.00 | 76 | 1018.9 |
| 20260506070604 | 52 | 191 | 0.0 | 0.9 | 0.00 | 0.23 | 0.00 | 76 | 1018.9 |
| 20260506070104 | 52 | 191 | 0.0 | 1.7 | 0.00 | 0.23 | 0.00 | 75 | 1018.8 |
| 20260506062105 | 52 | 164 | 0.0 | 1.7 | 0.00 | 0.23 | 0.23 | 72 | 1018.5 |
| 20260506061604 | 52 | 176 | 0.9 | 1.7 | 0.00 | 0.23 | 0.23 | 72 | 1018.4 |
| 20260506061105 | 52 | 204 | 0.0 | 1.7 | 0.00 | 0.23 | 0.23 | 72 | 1018.5 |
| 20260506060603 | 52 | 162 | 0.9 | 2.6 | 0.00 | 0.23 | 0.23 | 72 | 1018.4 |
| 20260506060104 | 52 | 191 | 0.0 | 2.6 | 0.00 | 0.23 | 0.23 | 72 | 1018.4 |
| 20260506051104 | 53 | 163 | 0.9 | 1.7 | 0.00 | 0.23 | 0.23 | 74 | 1017.9 |
| 20260506050604 | 53 | 152 | 0.0 | 1.7 | 0.00 | 0.23 | 0.23 | 73 | 1017.8 |
| 20260506050105 | 53 | 168 | 0.0 | 1.7 | 0.00 | 0.23 | 0.23 | 73 | 1017.7 |
| 20260506044604 | 54 | 171 | 0.0 | 0.9 | 0.00 | 0.23 | 0.23 | 71 | 1017.6 |
| 20260506044104 | 54 | 178 | 0.0 | 0.9 | 0.00 | 0.23 | 0.23 | 71 | 1017.6 |
| 20260506043604 | 54 | 177 | 0.0 | 0.9 | 0.00 | 0.23 | 0.23 | 70 | 1017.6 |
| 20260506043103 | 54 | 172 | 0.0 | 0.9 | 0.00 | 0.23 | 0.23 | 69 | 1017.6 |
| 20260506042603 | 54 | 182 | 0.0 | 0.9 | 0.00 | 0.23 | 0.23 | 69 | 1017.5 |
| 20260506042106 | 54 | 182 | 0.0 | 0.9 | 0.00 | 0.23 | 0.23 | 69 | 1017.4 |
| 20260506041604 | 54 | 173 | 0.0 | 1.7 | 0.00 | 0.23 | 0.23 | 68 | 1017.2 |
| 20260506041106 | 54 | 173 | 0.0 | 1.7 | 0.00 | 0.23 | 0.23 | 69 | 1017.1 |
| 20260506040604 | 55 | 167 | 0.0 | 0.9 | 0.00 | 0.23 | 0.23 | 68 | 1017.1 |
| 20260506040104 | 55 | 168 | 0.0 | 0.0 | 0.00 | 0.23 | 0.23 | 67 | 1017.1 |
| 20260506035604 | 55 | 168 | 0.0 | 0.9 | 0.00 | 0.23 | 0.23 | 67 | 1017.1 |
| 20260506034603 | 55 | 167 | 0.0 | 0.9 | 0.00 | 0.23 | 0.23 | 67 | 1016.9 |
| 20260506034104 | 55 | 167 | 0.0 | 0.9 | 0.00 | 0.23 | 0.23 | 66 | 1016.8 |
| 20260506033604 | 55 | 167 | 0.0 | 0.9 | 0.00 | 0.23 | 0.23 | 66 | 1016.8 |
| 20260506033104 | 55 | 167 | 0.0 | 0.9 | 0.00 | 0.23 | 0.23 | 66 | 1016.7 |
| 20260506032604 | 55 | 167 | 0.0 | 1.7 | 0.00 | 0.23 | 0.23 | 66 | 1016.6 |
| 20260506031604 | 55 | 168 | 0.0 | 0.9 | 0.00 | 0.23 | 0.23 | 65 | 1016.5 |
| 20260506031106 | 55 | 168 | 0.0 | 0.9 | 0.00 | 0.23 | 0.23 | 65 | 1016.5 |
| 20260506030104 | 55 | 168 | 0.0 | 0.9 | 0.00 | 0.23 | 0.23 | 65 | 1016.5 |
| 20260506025603 | 55 | 170 | 0.0 | 1.7 | 0.00 | 0.23 | 0.23 | 65 | 1016.4 |
| 20260506025104 | 55 | 170 | 0.0 | 1.7 | 0.00 | 0.23 | 0.23 | 66 | 1016.2 |
| 20260506024605 | 55 | 161 | 0.9 | 1.7 | 0.00 | 0.23 | 0.23 | 66 | 1016.0 |
| 20260506024104 | 55 | 238 | 0.9 | 1.7 | 0.00 | 0.23 | 0.23 | 66 | 1016.0 |
| 20260506023604 | 55 | 261 | 0.0 | 1.7 | 0.00 | 0.23 | 0.23 | 67 | 1016.0 |